Flag for Germany Weather past 2 weeks in Altenburg, Thuringia, Germany

Now
25 °F

Passing clouds.


Feels Like: 18 °F
Forecast: 20 / 27 °F
Wind: 6 mph from South

Location: Gera-Leumnitz

Current Time: Dec 27, 2014 at 6:14:40 AM

Latest Report: Dec 27, 2014 at 6:00 AM


Visibility: 19 mi

Pressure: 30.01 "Hg

Humidity: 84%

Dew point: 20 °F

Location of AltenburgLocation

Historic Weather in Altenburg — Graph

°F

Altenburg temperature yesterday

Maximum temperature yesterday: 34 °F (at 12:00 AM)
Minimum temperature yesterday: 26 °F (at 11:00 PM)
Average temperature yesterday: 31 °F

Past Weeks' High & Low Weather Summary

 TemperatureHumidityPressure
High54 °F (Dec 19, 12:00 AM)100% (Dec 14, 10:00 PM)30.38 "Hg (Dec 14, 10:00 PM)
Low24 °F (Dec 27, 4:00 AM)63% (Dec 15, 2:00 PM)29.54 "Hg (Dec 12, 8:00 PM)
Average41 °F83%29.99 "Hg
* Reported Dec 12 4:00 AM — Dec 27 4:00 AM, Altenburg, Weather by CustomWeather, © 2014

Note: Actual official high and low records may vary slightly from our data, if they occured in-between our weather recording intervals... More about our weather records

Advertising

Altenburg weather history for previous 24 hours

 ConditionsComfort  
Time TempWeatherWind HumidityBarometerVisibility
4:00 AM
Dec 27
24 °FPassing clouds.5 mph89%30.11 "Hg11 mi
3:00 AM24 °FPassing clouds.5 mph89%30.15 "Hg11 mi
2:00 AM25 °FClear.5 mph86%30.18 "Hg16 mi
1:00 AM26 °FClear.5 mph88%30.21 "Hg14 mi
12:00 AM26 °FClear.3 mph90%30.24 "Hg12 mi
11:00 PM
Dec 26
26 °FClear.3 mph91%30.27 "Hg10 mi
10:00 PM27 °FClear.3 mph91%30.29 "Hg8 mi
9:00 PM27 °FPassing clouds.3 mph91%30.31 "Hg7 mi
8:00 PM26 °FOvercast.2 mph89%30.33 "Hg8 mi
7:00 PM28 °FOvercast.2 mph89%30.33 "Hg10 mi
6:00 PM28 °FOvercast.1 mph90%30.34 "Hg11 mi
5:00 PM28 °FPassing clouds.1 mph86%30.35 "Hg22 mi
4:00 PM30 °FPassing clouds.2 mph81%30.35 "Hg19 mi
3:00 PM31 °FPassing clouds.3 mph76%30.34 "Hg17 mi
2:00 PM31 °FScattered clouds.3 mph80%30.35 "Hg22 mi
1:00 PM32 °FPartly sunny.3 mph79%30.34 "Hg25 mi
12:00 PM33 °FOvercast.2 mph80%30.35 "Hg25 mi
11:00 AM33 °FOvercast.2 mph79%30.36 "Hg22 mi
10:00 AM31 °FOvercast.2 mph82%30.36 "Hg25 mi
9:00 AM31 °FOvercast.3 mph82%30.36 "Hg28 mi
8:00 AM31 °FLight snow. Overcast.3 mph88%30.34 "Hg22 mi
7:00 AM32 °FLight snow. Overcast.5 mph85%30.33 "Hg19 mi
6:00 AM32 °FOvercast.3 mph83%30.32 "Hg28 mi
Weather by CustomWeather, © 2014

See weather overviewHow to use our weather pages